Quillayute, WA
on Thursday, February 14, 2013

Thursday
Previous Day Next Day
Daily Summary
 ActualAverageRecord
Temperature
Mean Temperature °F 42°F  
Max Temperature 52°F 49°F 65°F (1996)
Min Temperature 40°F 35°F 20°F (1990)
Degree Days
Heating Degree Days 19 23  
Month to date heating degree days 292 322  
Since 1 July heating degree days 3400 3527  
Cooling Degree Days 0 0  
Month to date cooling degree days 0 0  
Year to date cooling degree days 0 0  
Moisture
Dew Point 42°F   
Average Humidity 85    
Maximum Humidity 92    
Minimum Humidity 77    
Precipitation
Precipitation 0.18 in 0.36 in 2.86 in (1988)
Month to date precipitation 2.88 5.34  
Year to date precipitation 13.22 19.95  
Wind
Wind Speed 1 mph   
Max Wind Speed 8 mph   
Max Gust Speed 14 mph   
Visibility 3 miles   
Events Fog , Rain   

Key: T is trace of precipitation, MM is missing value
Source: NWS Daily Summary
Time(PST)TemperatureDew PointHumidity Pressure Visibility Wind DirectionWind SpeedGust SpeedPrecipitationEvents Conditions
12:04 AM 41.0°F 37.4°F 87% 30.48 in 2.5 miles Calm Calm - N/A   Mostly Cloudy
12:11 AM 41.0°F 37.4°F 87% 30.48 in 3.0 miles Calm Calm - N/A   Mostly Cloudy
12:19 AM 41.0°F 37.4°F 87% 30.48 in 2.0 miles Calm Calm - N/A   Mostly Cloudy
12:28 AM 39.2°F 37.4°F 93% 30.48 in 1.2 miles Calm Calm - N/A   Mostly Cloudy
12:41 AM 39.2°F 37.4°F 93% 30.48 in 0.8 miles Calm Calm - N/A   Mostly Cloudy
12:53 AM 39.9°F 37.0°F 89% 30.48 in 0.2 miles Calm Calm - N/A Fog Fog
12:57 AM 39.2°F 37.4°F 93% 30.47 in 0.5 miles Calm Calm - N/A Fog Fog
1:03 AM 41.0°F 37.4°F 87% 30.48 in 1.5 miles Calm Calm - N/A   Overcast
1:05 AM 41.0°F 37.4°F 87% 30.48 in 2.0 miles Calm Calm - N/A   Overcast
1:13 AM 41.0°F 37.4°F 87% 30.48 in 5.0 miles Calm Calm - N/A   Overcast
1:53 AM 43.0°F 39.0°F 86% 30.49 in 5.0 miles Calm Calm - N/A   Overcast
2:17 AM 42.8°F 39.2°F 87% 30.48 in 1.8 miles Calm Calm - 0.00 in Rain Light Rain
2:21 AM 42.8°F 39.2°F 87% 30.48 in 1.2 miles Calm Calm - 0.01 in Rain Light Rain
2:30 AM 42.8°F 39.2°F 87% 30.47 in 1.2 miles Calm Calm - N/A Rain Light Rain
2:36 AM 42.8°F 39.2°F 87% 30.47 in 1.5 miles Calm Calm - 0.01 in Rain Light Rain
2:53 AM 43.0°F 39.0°F 86% 30.48 in 1.8 miles Calm Calm - 0.01 in   Overcast
3:04 AM 42.8°F 39.2°F 87% 30.47 in 1.8 miles SE 3.5 mph - 0.00 in Rain Light Rain
3:23 AM 44.6°F 39.2°F 81% 30.47 in 1.2 miles Calm Calm - 0.01 in Rain Light Rain
3:53 AM 44.1°F 39.9°F 85% 30.50 in 1.0 miles Calm Calm - 0.06 in Rain Light Rain
4:07 AM 44.6°F 41.0°F 87% 30.49 in 1.5 miles East 3.5 mph - 0.01 in Rain Light Rain
4:40 AM 44.6°F 41.0°F 87% 30.48 in 1.2 miles ESE 3.5 mph - 0.03 in Rain Light Rain
4:49 AM 44.6°F 41.0°F 87% 30.49 in 1.5 miles ESE 3.5 mph - 0.04 in Rain Light Rain
4:53 AM 44.1°F 41.0°F 89% 30.49 in 1.5 miles Calm Calm - 0.04 in Rain Light Rain
5:10 AM 44.6°F 41.0°F 87% 30.48 in 2.0 miles SE 4.6 mph - 0.01 in Rain Light Rain
5:41 AM 44.6°F 41.0°F 87% 30.47 in 4.0 miles SE 4.6 mph - 0.04 in Rain Light Rain
5:53 AM 45.0°F 41.0°F 86% 30.48 in 4.0 miles ESE 4.6 mph - 0.04 in Rain Light Rain
6:10 AM 44.6°F 41.0°F 87% 30.47 in 2.0 miles SE 5.8 mph - 0.01 in Rain Light Rain
6:41 AM 44.6°F 41.0°F 87% 30.47 in 3.0 miles East 3.5 mph - 0.01 in Rain Light Rain
6:53 AM 45.0°F 41.0°F 86% 30.48 in 3.0 miles East 3.5 mph - 0.01 in Rain Light Rain
7:39 AM 44.6°F 41.0°F 87% 30.48 in 2.5 miles ESE 4.6 mph - 0.01 in Rain Light Rain
7:53 AM 45.0°F 41.0°F 86% 30.49 in 1.5 miles Calm Calm - 0.01 in Rain Light Rain
8:09 AM 44.6°F 41.0°F 87% 30.48 in 2.5 miles ESE 3.5 mph - 0.01 in   Overcast
8:18 AM 44.6°F 41.0°F 87% 30.48 in 3.0 miles Calm Calm - 0.01 in   Overcast
8:28 AM 46.4°F 42.8°F 87% 30.49 in 2.5 miles Calm Calm - 0.01 in   Overcast
8:53 AM 46.0°F 42.1°F 86% 30.51 in 1.5 miles Calm Calm - 0.01 in Rain Light Rain
9:02 AM 46.4°F 42.8°F 87% 30.50 in 1.0 miles Calm Calm - 0.00 in Rain Light Rain
9:26 AM 46.4°F 42.8°F 87% 30.49 in 1.8 miles Calm Calm - 0.00 in   Overcast
9:37 AM 46.4°F 42.8°F 87% 30.50 in 2.5 miles Calm Calm - 0.00 in   Overcast
9:51 AM 48.2°F 44.6°F 87% 30.50 in 3.0 miles Calm Calm - 0.00 in   Overcast
9:53 AM 48.0°F 44.1°F 86% 30.50 in 3.0 miles Calm Calm - 0.00 in   Overcast
10:53 AM 50.0°F 45.0°F 83% 30.51 in 6.0 miles SSE 3.5 mph - N/A   Haze
11:53 AM 50.0°F 45.0°F 83% 30.52 in 5.0 miles SSE 3.5 mph - N/A   Haze
12:53 PM 51.1°F 46.0°F 83% 30.52 in 5.0 miles Variable 3.5 mph - N/A   Haze
1:53 PM 51.1°F 45.0°F 80% 30.53 in 5.0 miles SSW 3.5 mph - N/A   Haze
2:46 PM 51.8°F 44.6°F 76% 30.52 in 5.0 miles South 3.5 mph - N/A   Haze
2:53 PM 51.1°F 46.0°F 83% 30.52 in 5.0 miles SW 4.6 mph - N/A   Haze
3:08 PM 51.8°F 46.4°F 82% 30.51 in 5.0 miles South 4.6 mph - N/A   Haze
3:22 PM 51.8°F 46.4°F 82% 30.51 in 4.0 miles Calm Calm - 0.00 in Rain Light Rain
3:44 PM 51.8°F 46.4°F 82% 30.51 in 5.0 miles SW 3.5 mph - 0.00 in   Haze
3:53 PM 51.1°F 46.0°F 83% 30.52 in 5.0 miles SW 3.5 mph - 0.00 in   Haze
4:53 PM 51.1°F 46.0°F 83% 30.52 in 5.0 miles SW 3.5 mph - N/A   Haze
5:53 PM 50.0°F 45.0°F 83% 30.53 in 5.0 miles Calm Calm - N/A   Haze
6:48 PM 48.2°F 44.6°F 87% 30.53 in 5.0 miles Calm Calm - N/A   Haze
6:53 PM 48.0°F 44.1°F 86% 30.53 in 5.0 miles Calm Calm - N/A   Overcast
7:35 PM 48.2°F 44.6°F 87% 30.53 in 5.0 miles Calm Calm - N/A   Overcast
7:42 PM 48.2°F 44.6°F 87% 30.53 in 2.5 miles Calm Calm - N/A   Overcast
7:53 PM 48.0°F 45.0°F 89% 30.53 in 5.0 miles Calm Calm - N/A   Overcast
8:53 PM 48.0°F 44.1°F 86% 30.53 in 4.0 miles Calm Calm - N/A   Overcast
9:06 PM 46.4°F 44.6°F 93% 30.53 in 1.5 miles Calm Calm - N/A   Overcast
9:11 PM 46.4°F 44.6°F 93% 30.53 in 0.8 miles Calm Calm - N/A   Overcast
9:21 PM 48.2°F 44.6°F 87% 30.53 in 0.8 miles Calm Calm - N/A   Overcast
9:26 PM 48.2°F 44.6°F 87% 30.53 in 2.0 miles Calm Calm - N/A   Overcast
9:34 PM 48.2°F 44.6°F 87% 30.53 in 4.0 miles Calm Calm - N/A   Overcast
9:53 PM 48.0°F 44.1°F 86% 30.54 in 4.0 miles Calm Calm - N/A   Overcast
10:11 PM 48.2°F 44.6°F 87% 30.53 in 2.5 miles Calm Calm - N/A   Overcast
10:16 PM 48.2°F 44.6°F 87% 30.53 in 4.0 miles Calm Calm - N/A   Overcast
10:30 PM 48.2°F 44.6°F 87% 30.54 in 5.0 miles Calm Calm - N/A   Overcast
10:53 PM 48.0°F 45.0°F 89% 30.54 in 5.0 miles Calm Calm - N/A   Overcast
11:51 PM 48.2°F 44.6°F 87% 30.54 in 2.5 miles Calm Calm - N/A   Overcast
11:53 PM 48.0°F 44.1°F 86% 30.54 in 3.0 miles Calm Calm - N/A   Overcast
Moon Phase
Feb. 14 Feb. 17 Feb. 25 Mar. 04 Mar. 11
Sunrise:07:25 AM (PST) Moon Rise:09:05 AM (PST)2/14
Sunset:05:39 PM (PST) Moon Set:11:16 PM (PST)2/14

Copyright © 2014 The Weather Underground, Inc.